Location: Unspecified
(0.0000°N, 1.0000°E)
Time: 06:51:31
(UTC+02:00)

Daily predictions for brighter satellites

Satellite Brightness Start Highest point End
(mag) Time Altitude Azimuth Time Altitude Azimuth Time Altitude Azimuth
ARIANE 5 R/B 3.2 19:48:02 10° W 19:51:22 89° NNW 20:09:20 10° E
ARIANE DEB (SYLDA) 3.4 19:55:50 10° W 19:59:55 88° N 20:15:53 10° E
FUSE 4.0 20:18:27 10° WSW 20:23:48 73° SSE 20:29:11 10° ENE
MSX 4.0 20:18:13 10° SSE 20:23:52 58° ENE 20:29:30 10° N
CZ-4C R/B 3.2 20:18:01 10° N 20:25:42 56° ENE 20:33:22 10° SE
Cosmos 2278 Rocket 3.3 20:31:02 10° SSE 20:35:14 21° ESE 20:39:23 10° ENE
Cosmos 1844 Rocket 2.7 20:30:50 10° S 20:36:24 58° ESE 20:41:57 10° NNE
Resurs 01 Rocket 2.9 20:33:46 10° SE 20:37:09 22° ENE 20:40:31 10° NNE
CZ-2C R/B 3.7 20:32:52 10° S 20:37:11 41° WSW 20:41:34 10° NNW
ARIANE 5 R/B 3.2 20:33:38 10° WSW 20:37:34 57° S 20:56:55 13° E
Aureole 2 Rocket 4.4 20:34:41 10° NNW 20:38:50 41° WSW 20:42:57 10° S
USA 32 4.0 20:35:07 10° N 20:40:19 74° E 20:45:32 10° S
ASTRO E2 2.7 20:36:32 10° SW 20:40:30 62° SE 20:44:26 10° ENE
Cosmos 1844 4.0 20:35:09 10° S 20:40:30 43° ESE 20:45:54 10° NE
SJ-6B 3.0 20:38:41 10° SSE 20:42:44 56° ENE 20:46:42 10° N
Spot 1 4.3 20:40:33 10° SSE 20:44:30 46° ENE 20:48:36 10° N
Cosmos 1867 3.7 20:40:29 10° N 20:45:46 56° ENE 20:51:02 10° SSE
Cosmos 1869 3.4 20:43:42 10° N 20:47:38 79° W 20:51:35 10° S
Cosmos 2056 Rocket 3.5 20:43:53 10° SSW 20:49:10 87° WNW 20:54:21 10° NNE
Ariane H10+ 4.2 20:22:47 10° W 20:51:56 69° NNW 20:58:37 10° ENE
Cosmos 2251 Rocket 3.4 20:50:09 10° N 20:55:21 76° ENE 21:00:35 10° SSE
Cosmos 1455 3.9 20:53:14 10° NNW 20:56:50 36° W 21:00:25 10° SSW
Cosmos 1943 3.7 20:53:09 10° N 20:58:17 37° ENE 21:02:02 17° SE
Cosmos 1703 Rocket 3.9 20:54:45 10° NNE 20:59:01 45° E 21:03:17 10° SSE
NOAA 12 4.1 20:57:18 10° SSE 21:02:37 72° ENE 21:07:54 10° N
Ariane H10+ 2.3 21:01:08 10° WNW 21:03:16 25° N 21:04:09 18° NE
XTE 2.9 21:00:13 10° WSW 21:03:17 67° SSE 21:04:33 31° E
Fermi 4.4 21:00:39 10° W 21:04:33 45° SSW 21:06:48 22° SE
Cosmos 2184 Rocket 4.1 20:58:51 10° SSE 21:04:46 48° E 21:10:38 10° NNE
Cosmos 1733 Rocket 3.3 21:04:19 10° SSE 21:08:35 46° E 21:12:48 10° NNE
Aureole 3 Rocket 2.3 21:05:05 10° N 21:08:46 87° W 21:11:32 13° S
Spot 2 Rocket 3.4 21:07:49 10° SSE 21:12:53 72° ENE 21:17:58 10° N
Meteor 2-3 Rocket 4.4 21:08:24 10° SSW 21:13:58 56° W 21:19:28 10° N
Aurora 2 Rocket 4.3 21:11:48 10° SW 21:21:53 57° SSE 21:26:16 28° E
FREGAT/IRIS 4.1 21:19:11 10° S 21:22:06 37° W 21:24:59 10° NNW
Coronas F rocket 2.0 21:20:34 21° SSW 21:22:07 51° W 21:24:41 10° N
METEOR-M 4.0 21:19:24 14° SSE 21:24:03 77° ENE 21:29:22 10° N
Cosmos 494 Rocket 4.1 21:20:17 10° NNW 21:25:27 73° WSW 21:29:49 15° S
HJ-1C 4.0 21:25:12 23° S 21:27:02 56° W 21:30:17 10° NNW
Resurs 1-3 3.4 21:26:16 29° SSE 21:28:28 82° ENE 21:32:49 10° N
GPS 2-18 Rocket1 4.4 21:27:43 10° NW 21:30:57 27° NNE 21:31:06 27° NNE
Cosmos 2074 Rocket 4.1 21:28:34 10° S 21:34:52 78° W 21:41:08 10° N
Helios 1A 4.0 21:31:12 11° S 21:35:00 45° WSW 21:38:59 10° NNW
Cosmos 389 Rocket 4.0 21:33:11 10° NNW 21:36:26 36° W 21:38:39 18° SSW
SWIFT 2.7 21:34:18 10° WSW 21:38:31 59° NNW 21:39:21 48° NNE
CZ-4B DEB 4.0 21:42:08 39° NNW 21:42:08 39° NNW 21:44:19 10° NNW
Meteor 1-26 Rocket 4.3 21:36:37 10° N 21:42:31 85° W 21:46:18 23° S
ALOS 2.7 21:44:19 47° NE 21:44:19 47° NE 21:47:59 10° N
Cosmos 2181 Rocket 4.0 21:38:06 10° N 21:44:26 84° W 21:49:09 19° S
Cosmos 1610 Rocket 4.3 21:38:42 10° S 21:44:50 81° E 21:50:58 10° N
USA 234 3.3 21:44:19 44° E 21:45:51 52° SE 21:52:09 10° SSW
Lacrosse 5 rocket 3.7 21:43:25 10° SSW 21:44:03 14° SSW 21:44:03 14° SSW
Haruka 4.5 21:10:18 10° NW 21:51:47 84° NNE 21:54:43 47° ESE
Cosmos 1452 Rocket 4.4 21:46:53 10° SSW 21:51:55 47° WNW 21:56:56 10° N
OAO 1 4.4 21:51:15 10° SW 21:56:46 87° NW 21:56:54 85° NNE
Okean 1-7 4.4 21:59:29 10° NNW 22:03:30 36° W 22:04:27 32° WSW
CENTAUR R/B 3.8 21:58:40 10° N 22:05:12 37° NE 22:05:12 37° NE
Skynet4D Del rocket 4.4 21:58:15 10° WNW 22:06:40 88° SSW 22:08:03 66° ESE
Resurs 01 Rocket 4.3 22:10:42 10° SW 22:13:21 16° WSW 22:16:00 10° WNW
Ariane H10 4.2 21:57:11 10° W 22:14:13 62° SSW 22:15:11 59° SSE
ATLAS 5 CENTAUR R/B 4.2 22:10:15 10° N 22:12:37 20° NNE 22:12:37 20° NNE
Cosmos 2278 Rocket 4.2 22:14:21 10° SW 22:19:00 26° WNW 22:23:40 10° NNW
Milstar 3 Cent rocket 3.4 22:08:15 10° SW 22:24:05 72° SSE 22:24:34 71° SE
USA 215 3.6 22:36:04 60° W 22:36:04 60° W 22:41:44 10° NW
CZ-3C R/B 4.4 21:46:16 10° W 22:39:01 36° NW 22:45:25 17° NNE
